Date String (YYYY-MM-DD hh:mm:ss) UTC,Instrument flags,Ambient pressure (hPa),Sample flow (lpm),Bypass flow (lpm),Sample temperature (°C),Ambient temperature (°C),ASC tube jacket temperature (°C),LED temperature (°C),Box temperature (°C),Sample RH (%),Span deviation,Mass concentration (μg/m³),Mass concentration (μg/m³),Mass concentration (μg/m³)
DateTimeUTC,F1_M11,P_M11,Q1_M11,Q2_M11,T1_M11,T2_M11,T3_M11,T4_M11,T5_M11,U1_M11,ZSPAN_M11,X0_M11,X2_M11,X1_M11
2022-06-05 05:00:00,,0821.1,5.00,0.00,30.0,28.9,00.0,38.8,31.8,18.8,0000.0,0009.56,0003.72,0003.02
2022-06-05 05:01:00,,0821.1,5.01,0.00,30.0,28.9,00.0,38.8,31.9,19.0,0000.0,0009.69,0003.75,0003.06
2022-06-05 05:02:00,,0821.1,4.99,0.00,30.0,28.9,00.0,38.8,31.9,18.9,0000.0,0009.95,0003.83,0003.09
2022-06-05 05:03:00,,0821.2,5.00,0.00,30.0,28.9,00.0,38.8,31.9,18.8,0000.0,0010.13,0003.88,0003.12
2022-06-05 05:04:00,,0821.1,4.99,0.00,30.0,28.9,00.0,38.8,31.9,18.6,0000.0,0010.29,0003.87,0003.12
2022-06-05 05:05:00,,0821.1,5.00,0.00,30.0,28.9,00.0,38.8,31.9,18.7,0000.0,0010.76,0003.92,0003.12
2022-06-05 05:06:00,,0821.1,5.01,0.00,30.0,28.9,00.0,38.8,31.9,18.8,0000.0,0011.66,0003.92,0003.13
2022-06-05 05:07:00,,0821.1,5.00,0.00,30.0,28.9,00.0,38.9,31.9,18.7,0000.0,0011.42,0003.92,0003.13
2022-06-05 05:08:00,,0821.1,4.99,0.00,30.0,28.8,00.0,38.8,31.9,18.6,0000.0,0011.44,0003.97,0003.15
2022-06-05 05:09:00,,0821.0,5.00,0.00,30.0,27.9,00.0,38.8,31.7,18.8,0000.0,0011.58,0004.01,0003.15
2022-06-05 05:10:00,,0821.0,4.99,0.00,29.9,27.2,00.0,38.7,31.4,18.8,0000.0,0010.81,0004.01,0003.16
2022-06-05 05:11:00,,0821.0,5.01,0.00,29.8,27.1,00.0,38.7,31.3,19.1,0000.0,0010.99,0004.03,0003.17
2022-06-05 05:12:00,,0821.0,4.99,0.00,29.6,27.1,00.0,38.6,31.2,19.3,0000.0,0010.84,0004.06,0003.17
2022-06-05 05:13:00,,0821.0,5.02,0.00,29.6,27.2,00.0,38.6,31.2,19.2,0000.0,0010.80,0004.04,0003.16
2022-06-05 05:14:00,,0820.9,4.99,0.00,29.5,27.4,00.0,38.6,31.2,19.2,0000.0,0010.84,0004.01,0003.16
2022-06-05 05:15:00,,0821.0,5.01,0.00,29.5,27.5,00.0,38.6,31.3,19.5,0000.0,0011.95,0004.00,0003.15
2022-06-05 05:16:00,,0821.0,4.99,0.00,29.5,27.6,00.0,38.5,31.3,19.6,0000.0,0012.36,0003.97,0003.16
2022-06-05 05:17:00,,0821.0,4.99,0.00,29.5,27.8,00.0,38.5,31.3,19.1,0000.0,0011.51,0004.00,0003.16
2022-06-05 05:18:00,,0820.9,4.99,0.00,29.5,27.9,00.0,38.5,31.3,19.0,0000.0,0012.30,0004.04,0003.14
2022-06-05 05:19:00,,0820.8,5.00,0.00,29.5,27.9,00.0,38.5,31.3,19.1,0000.0,0012.78,0004.01,0003.13
2022-06-05 05:20:00,,0820.9,5.00,0.00,29.5,28.0,00.0,38.5,31.3,19.0,0000.0,0012.33,0004.05,0003.14
2022-06-05 05:21:00,,0820.8,4.98,0.00,29.5,28.1,00.0,38.5,31.3,19.1,0000.0,0012.46,0004.08,0003.14
2022-06-05 05:22:00,,0820.9,5.00,0.00,29.5,28.1,00.0,38.4,31.3,19.3,0000.0,0012.47,0004.13,0003.14
2022-06-05 05:23:00,,0820.9,5.01,0.00,29.5,28.2,00.0,38.4,31.3,19.3,0000.0,0012.60,0004.11,0003.14
2022-06-05 05:24:00,,0820.9,5.01,0.00,29.5,28.2,00.0,38.4,31.4,19.4,0000.0,0012.94,0004.08,0003.14
2022-06-05 05:25:00,,0820.9,5.00,0.00,29.5,28.3,00.0,38.4,31.4,19.4,0000.0,0012.98,0004.05,0003.13
2022-06-05 05:26:00,,0820.8,4.99,0.00,29.5,28.3,00.0,38.4,31.4,19.4,0000.0,0011.71,0004.04,0003.12
2022-06-05 05:27:00,,0820.7,5.01,0.00,29.5,28.3,00.0,38.4,31.4,19.3,0000.0,0010.97,0004.05,0003.12
2022-06-05 05:28:00,,0820.7,5.00,0.00,29.5,28.3,00.0,38.4,31.4,19.3,0000.0,0011.22,0004.04,0003.11
2022-06-05 05:29:00,,0820.7,5.01,0.00,29.5,28.4,00.0,38.4,31.4,19.5,0000.0,0010.68,0004.04,0003.12
2022-06-05 05:30:00,,0820.7,5.00,0.00,29.6,28.4,00.0,38.4,31.5,19.4,0000.0,0010.12,0004.05,0003.13
2022-06-05 05:31:00,,0820.7,4.99,0.00,29.6,28.4,00.0,38.5,31.5,19.9,0000.0,0010.14,0004.02,0003.12
2022-06-05 05:32:00,,0820.7,5.00,0.00,29.6,28.4,00.0,38.5,31.5,19.9,0000.0,0010.27,0004.02,0003.12
2022-06-05 05:33:00,,0820.8,5.00,0.00,29.6,28.5,00.0,38.5,31.5,20.0,0000.0,0010.73,0003.97,0003.12
2022-06-05 05:34:00,,0820.7,5.00,0.00,29.6,28.5,00.0,38.5,31.5,19.6,0000.0,0010.82,0004.02,0003.11
2022-06-05 05:35:00,,0820.7,4.99,0.00,29.6,28.5,00.0,38.5,31.5,19.4,0000.0,0010.33,0004.03,0003.12
2022-06-05 05:36:00,,0820.7,5.00,0.00,29.6,28.5,00.0,38.5,31.5,19.3,0000.0,0010.36,0004.10,0003.12
2022-06-05 05:37:00,,0820.7,5.01,0.00,29.6,28.5,00.0,38.5,31.5,19.4,0000.0,0010.51,0004.12,0003.13
2022-06-05 05:38:00,,0820.7,5.00,0.00,29.6,28.5,00.0,38.5,31.5,19.3,0000.0,0010.66,0004.10,0003.13
2022-06-05 05:39:00,,0820.7,5.00,0.00,29.6,28.5,00.0,38.5,31.5,19.3,0000.0,0010.75,0004.13,0003.14
2022-06-05 05:40:00,,0820.7,5.00,0.00,29.6,28.5,00.0,38.5,31.5,19.3,0000.0,0011.02,0004.13,0003.15
2022-06-05 05:41:00,,0820.7,4.99,0.00,29.7,28.5,00.0,38.5,31.5,19.2,0000.0,0011.30,0004.13,0003.15
2022-06-05 05:42:00,,0820.7,5.00,0.00,29.7,28.5,00.0,38.5,31.6,19.3,0000.0,0011.59,0004.14,0003.15
2022-06-05 05:43:00,,0820.6,5.01,0.00,29.7,28.6,00.0,38.5,31.6,19.3,0000.0,0011.46,0004.14,0003.15
2022-06-05 05:44:00,,0820.6,5.00,0.00,29.7,28.6,00.0,38.6,31.6,19.4,0000.0,0010.77,0004.12,0003.15
2022-06-05 05:45:00,,0820.6,5.00,0.00,29.7,28.6,00.0,38.6,31.6,19.4,0000.0,0010.54,0004.09,0003.15
2022-06-05 05:46:00,,0820.6,4.99,0.00,29.7,28.6,00.0,38.6,31.6,19.5,0000.0,0010.60,0004.09,0003.15
2022-06-05 05:47:00,,0820.6,5.00,0.00,29.7,28.6,00.0,38.6,31.6,19.5,0000.0,0010.55,0004.07,0003.16
2022-06-05 05:48:00,,0820.6,5.01,0.00,29.7,28.6,00.0,38.6,31.6,19.4,0000.0,0010.61,0004.07,0003.17
2022-06-05 05:49:00,,0820.6,5.01,0.00,29.7,28.6,00.0,38.6,31.6,19.4,0000.0,0010.60,0004.10,0003.17
2022-06-05 05:50:00,,0820.6,4.99,0.00,29.7,28.6,00.0,38.6,31.6,19.5,0000.0,0010.20,0004.07,0003.17
2022-06-05 05:51:00,,0820.6,4.99,0.00,29.7,28.6,00.0,38.6,31.6,19.5,0000.0,0009.77,0004.04,0003.17
2022-06-05 05:52:00,,0820.5,5.00,0.00,29.7,28.6,00.0,38.6,31.6,19.4,0000.0,0009.39,0004.07,0003.17
2022-06-05 05:53:00,,0820.5,4.99,0.00,29.8,28.6,00.0,38.6,31.6,19.8,0000.0,0008.66,0004.06,0003.17
2022-06-05 05:54:00,,0820.5,5.00,0.00,29.8,28.6,00.0,38.6,31.6,19.6,0000.0,0008.61,0004.04,0003.17
2022-06-05 05:55:00,,0820.5,5.01,0.00,29.8,28.6,00.0,38.6,31.7,19.4,0000.0,0008.53,0004.01,0003.15
2022-06-05 05:56:00,,0820.5,5.00,0.00,29.8,28.6,00.0,38.6,31.7,19.4,0000.0,0008.78,0004.01,0003.16
2022-06-05 05:57:00,,0820.5,5.00,0.00,29.8,28.6,00.0,38.6,31.6,19.4,0000.0,0009.52,0003.98,0003.15
2022-06-05 05:58:00,,0820.4,5.01,0.00,29.8,28.7,00.0,38.6,31.7,19.4,0000.0,0009.60,0003.97,0003.14
2022-06-05 05:59:00,,0820.4,5.01,0.00,29.8,28.7,00.0,38.7,31.7,19.4,0000.0,0009.56,0003.98,0003.14
